VE3DVC Weather Reports


Display with metric or nautical units.
time (UTC)temp
F
wind
direction
speed
MPH
gust
MPH
rain 1hr
in
rain 24hr
in
rain mn
in
humidity
%
barometer
mb
20260902134005 72 0 0.0 0.0 0.00 0.00 0.00 90 1015.3
20260902132806 72 0 0.0 1.0 0.00 0.00 0.00 90 1015.5
20260902131606 72 0 0.0 0.0 0.00 0.00 0.00 90 1015.3
20260902130405 72 0 0.0 1.0 0.00 0.00 0.00 91 1015.3
20260902125206 72 0 0.0 2.0 0.00 0.00 0.00 90 1015.4
20260902124006 71 0 0.0 0.0 0.00 0.00 0.00 91 1015.2
20260902122805 71 0 0.0 2.0 0.00 0.00 0.00 91 1015.1
20260902121605 71 0 0.0 0.0 0.00 0.00 0.00 91 1015.0
20260902120406 71 0 0.0 0.0 0.00 0.00 0.00 91 1014.8
20260902115206 71 0 0.0 0.0 0.00 0.00 0.00 91 1014.6
20260902114006 71 0 0.0 0.0 0.00 0.00 0.00 91 1014.5
20260902111926 71 0 0.0 0.0 0.00 0.00 0.00 91 1014.3
20260902110727 71 0 0.0 0.0 0.00 0.00 0.00 91 1014.4
20260902105526 71 0 0.0 2.0 0.00 0.00 0.00 91 1014.7
20260902104327 73 0 0.0 2.0 0.00 0.00 0.00 90 1014.2
20260902103126 73 0 0.0 1.0 0.00 0.00 0.00 91 1014.3
20260902101927 73 0 0.0 4.0 0.00 0.00 0.00 91 1013.9
20260902100726 73 0 0.0 1.0 0.00 0.00 0.00 90 1014.0
20260902094327 73 0 0.0 0.0 0.00 0.00 0.00 91 1014.0
20260902093127 73 0 0.0 0.0 0.00 0.00 0.00 91 1014.1
20260902091927 72 0 0.0 0.0 0.00 0.00 0.00 91 1013.7
20260902090726 72 0 0.0 0.0 0.00 0.00 0.00 91 1014.0
20260902085527 72 0 0.0 0.0 0.00 0.00 0.00 91 1014.0
20260902084326 72 0 0.0 0.0 0.00 0.00 0.00 91 1014.1
20260902083127 72 0 0.0 0.0 0.00 0.00 0.00 91 1014.5
20260902081927 72 0 0.0 0.0 0.00 0.00 0.00 91 1014.6
20260902080727 72 0 0.0 0.0 0.00 0.00 0.00 91 1014.5
20260902075527 72 0 0.0 0.0 0.00 0.00 0.00 91 1014.6
20260902074326 72 0 0.0 0.0 0.00 0.00 0.00 91 1014.5
20260902073127 71 0 0.0 0.0 0.00 0.00 0.00 91 1014.6
20260902064116 72 0 0.0 0.0 0.00 0.00 0.00 91 1014.6
20260902062916 71 0 0.0 0.0 0.00 0.00 0.00 92 1014.8
20260902061717 71 0 0.0 0.0 0.00 0.00 0.00 92 1015.0
20260902060517 71 0 0.0 0.0 0.00 0.00 0.00 92 1015.0
20260902055317 72 0 0.0 0.0 0.00 0.00 0.00 91 1014.8
20260902054116 72 0 0.0 0.0 0.00 0.00 0.00 92 1015.0
20260902052917 72 0 0.0 0.0 0.00 0.00 0.00 92 1015.0
20260902051716 72 0 0.0 0.0 0.00 0.00 0.00 92 1015.1
20260902050517 72 0 0.0 0.0 0.00 0.00 0.00 92 1014.9
20260902045316 72 0 0.0 0.0 0.00 0.00 0.00 92 1014.9
20260902044116 72 0 0.0 0.0 0.00 0.00 0.00 92 1014.9
20260902042917 72 0 0.0 0.0 0.00 0.00 0.00 92 1015.0
20260902041716 72 0 0.0 0.0 0.00 0.00 0.00 92 1014.9
20260902040517 72 0 0.0 0.0 0.00 0.00 0.00 92 1014.7
20260902035317 72 0 0.0 0.0 0.00 0.00 0.00 92 1014.7
20260902034116 73 0 0.0 0.0 0.00 0.00 0.00 92 1014.7
20260902032917 73 0 0.0 0.0 0.00 0.00 0.00 92 1014.6
20260902031716 73 0 0.0 0.0 0.00 0.00 0.00 92 1014.6
20260902030516 73 0 0.0 0.0 0.00 0.00 0.00 92 1014.6
20260902025318 73 0 0.0 0.0 0.00 0.00 0.00 92 1014.6
20260902013918 75 0 0.0 0.0 0.00 0.00 0.00 92 1014.3
20260902012719 75 0 0.0 0.0 0.00 0.00 0.00 92 1014.3
20260902011518 75 0 0.0 0.0 0.00 0.00 0.00 92 1014.1
20260902010319 76 0 0.0 0.0 0.00 0.00 0.00 92 1014.2
20260902005118 76 0 0.0 0.0 0.00 0.00 0.00 92 1013.9
20260902003918 76 0 0.0 0.0 0.00 0.00 0.00 91 1013.9
20260902002719 76 0 0.0 0.0 0.00 0.00 0.00 91 1013.9
20260902001518 77 0 0.0 0.0 0.00 0.00 0.00 91 1013.8
20260902000322 77 0 0.0 0.0 0.00 0.00 0.00 90 1013.9
20260901235118 78 0 0.0 0.0 0.00 0.00 0.00 90 1013.9
20260901232015 78 0 0.0 1.0 0.00 0.00 0.00 89 1014.1
20260901230816 79 0 0.0 1.0 0.00 0.00 0.00 88 1014.2
20260901225616 79 0 0.0 1.0 0.00 0.00 0.00 87 1014.2
20260901224415 80 0 0.0 1.0 0.00 0.00 0.00 87 1014.3
20260901223215 80 0 0.0 3.0 0.00 0.00 0.00 86 1014.3
20260901222016 81 0 0.0 1.0 0.00 0.00 0.00 86 1014.4
20260901220816 82 0 0.0 1.0 0.00 0.00 0.00 86 1014.4
20260901215618 82 0 0.0 2.0 0.00 0.00 0.00 87 1014.4
20260901214416 82 0 0.0 1.0 0.00 0.00 0.00 88 1014.3
20260901213216 82 0 0.0 1.0 0.00 0.00 0.00 88 1014.1
20260901212015 83 0 0.0 1.0 0.00 0.00 0.00 88 1014.1
20260901210815 83 0 0.0 0.0 0.00 0.00 0.00 88 1014.0
20260901205616 83 0 0.0 0.0 0.00 0.00 0.00 86 1014.0
20260901204416 83 0 0.0 0.0 0.00 0.00 0.00 84 1014.0
20260901203216 84 0 0.0 1.0 0.00 0.00 0.00 84 1014.0
20260901202016 84 0 0.0 2.0 0.00 0.00 0.00 84 1014.0
20260901200233 84 0 0.0 0.0 0.00 0.00 0.00 84 1014.0
20260901195033 84 0 0.0 1.0 0.00 0.00 0.00 84 1014.1
20260901193832 85 0 0.0 2.0 0.00 0.00 0.00 83 1014.1
20260901192633 85 0 0.0 2.0 0.00 0.00 0.00 81 1014.3
20260901191433 85 0 0.0 1.0 0.00 0.00 0.00 82 1014.4
20260901190233 85 0 0.0 2.0 0.00 0.00 0.00 79 1014.3
20260901185033 85 0 0.0 3.0 0.00 0.00 0.00 80 1014.5
20260901183833 85 0 0.0 2.0 0.00 0.00 0.00 81 1014.5
20260901182633 85 0 0.0 2.0 0.00 0.00 0.00 82 1014.3
20260901181433 84 0 0.0 3.0 0.00 0.00 0.00 83 1014.4
20260901175647 84 0 0.0 3.0 0.00 0.00 0.00 84 1014.4
20260901174446 84 0 0.0 3.0 0.00 0.00 0.00 85 1014.3
20260901173247 83 0 0.0 1.0 0.00 0.00 0.00 88 1014.2
20260901172046 83 0 0.0 3.0 0.00 0.00 0.00 88 1014.2
20260901162023 80 0 0.0 1.0 0.00 0.00 0.00 92 1014.3
20260901155623 78 0 0.0 2.0 0.00 0.00 0.00 91 1014.4
20260901154423 78 0 0.0 2.0 0.00 0.00 0.00 90 1014.5
20260901153223 77 0 0.0 1.0 0.00 0.00 0.00 90 1014.3
20260901152023 76 0 0.0 2.0 0.00 0.00 0.00 90 1014.4
20260901150824 75 0 0.0 1.0 0.00 0.00 0.00 90 1014.4
20260901145623 75 0 0.0 0.0 0.00 0.00 0.00 90 1014.4
20260901144424 75 0 0.0 1.0 0.00 0.00 0.00 90 1014.4
20260901143223 75 0 0.0 1.0 0.00 0.00 0.00 90 1014.3
20260901141214 74 0 0.0 0.0 0.00 0.00 0.00 91 1014.3
20260901140014 74 0 0.0 0.0 0.00 0.00 0.00 90 1014.3
20260901134814 74 0 0.0 0.0 0.00 0.00 0.00 91 1014.2